www.pogodaiklimat.ru

Погода и климат >> Архив погоды >> Ирак >> Tuz


ПОГОДА в Tuz

  • Прогноз погоды в Tuz
  • Монитор погоды в Tuz
  • Климат города

АРХИВ ПОГОДЫ в Tuz

Время (UTC), дата Ветер
(напр.,м/с)
 
Видим.   Явления Облачность Т
(С)
Тd
(С)
f
(%)
Тe
(С)
Тes
(С)
Комфортность P
(гПа)
Po
(гПа)
Тmin
(С)
Tmax
(С)
R
(мм)
R24
(мм)
S
(см)
18 11.12 штиль 0 10 км ясно +12.4 +10.2 86 +12 +12 1022.6 1023.0 +17.8
06 12.12 ЮВ 2 10 км ясно +11.8 +8.4 80 +11 +13 1022.6 1023.0
09 12.12 ЮВ 2 10 км ясно +18.2 +10.3 60 +19 +25 1022.1 1022.0
12 12.12 Ю 2 10 км ясно +18.3 +10.7 61 +19 +21 1021.0 1021.0
15 12.12 Ю 2 10 км ясно +15.2 +11.4 78 +15 +15 1019.2 1019.0
18 12.12 Ю 2 10 км ясно +19.0 +10.0 56 +20 +20 1019.5 1020.0
06 13.12 Ю 4 10 км 5/5 900 м
[Sc]
+14.5 +9.7 73 +13 +14 1020.4 1020.0 +12.0
09 13.12 Ю 4 10 км 8/8 600 м
[Cu Sc]
+16.4 +11.2 71 +16 +17 1021.2 1021.0
12 13.12 Ю 2 10 км 8/8 750 м
[Sc]
+17.0 +12.4 74 +17 +18 1020.0 1020.0
15 13.12 Ю 1 10 км 6/6 600 м
[Cu Sc]
+15.6 +12.9 84 +16 +16 1021.2 1021.0
18 13.12 штиль 0 10 км 1/0
[Ac trans]
+12.0 +11.5 97 +11 +11 1023.6 1024.0 +17.5
06 14.12 штиль 0 10 км 5/0
[Ci sp]
+12.0 +4.5 60 +12 +14 1025.7 1026.0 +9.2
09 14.12 С 2 10 км 3/0
[Ac trans]
+15.5 +4.3 47 +16 +21 1025.3 1025.0
12 14.12 С 3 10 км 1/0
[Ac trans]
+15.7 +4.2 46 +15 +17 1025.3 1025.0
15 14.12 штиль 0 10 км ясно +12.7 +6.4 65 +12 +12 1026.7 1027.0
18 14.12 штиль 0 10 км ясно +10.5 +5.5 71 +10 +10 1027.9 1028.0 +16.4
06 15.12 СЗ 2 10 км ясно +7.7 +3.8 76 +6 +8 1027.1 1027.0 +4.3
12 15.12 СЗ 4 10 км ясно +15.6 +6.2 54 +15 +16 1024.3 1024.0
15 15.12 СЗ 2 10 км ясно +13.8 +6.6 62 +13 +13 1025.5 1026.0
18 15.12 штиль 0 10 км ясно +12.5 +6.4 66 +12 +12 1025.7 1026.0 +16.5
06 16.12 штиль 0 10 км 4/0
[Ci sp]
+8.3 +4.7 78 +8 +10 1026.1 1026.0 +3.0
09 16.12 СЗ 2 8000 м дымка 3/0
[]
+14.3 +9.4 72 +14 +19 1026.7 1027.0
12 16.12 СЗ 2 10 км 10/0
[As op]
+15.9 +9.8 67 +16 +16 1023.3 1023.0
18 16.12 штиль 0 10 км 8/6
[Sc diur, vesp Ac cuf Ci sp]
+17.5 +7.9 53 +18 +18 1024.7 1025.0
06 17.12 Ю 3 6000 м дождь 10/10 900 м
[Sc]
+10.6 +9.8 95 +8 +8 1021.8 1022.0 +8.6
09 17.12 ЮВ 2 8000 м 10/10 600 м
[]
+8.8 +7.5 92
12 17.12 Ю 2 10 км в посл. час дождь 10/10 900 м
[Sc]
+11.4 +10.3 93 +10 +10 1018.5 1019.0
15 17.12 ЮВ 2 10 км 10/10 840 м
[Cu Sc]
+12.3 +10.2 87 +11 +11 1019.5 1020.0
18 17.12 штиль 0 10 км {дождь} 5/5 900 м
[Sc]
+12.2 +10.2 88 +12 +12 1019.5 1020.0 +12.4 17
06 18.12 Ю 2 6000 м дымка {туман} 10/10 900 м
[Sc]
+11.6 +11.0 96 +10 +10 1022.6 1023.0 +10.6 5
12 18.12 Ю 2 4000 м дымка {морось, туман} 10/10 840 м
[St]
+11.6 +11.2 97 +10 +10 1023.6 1024.0
15 18.12 С 2 6000 м дымка 10/10 900 м
[Sc]
+11.8 +11.2 96 +11 +11 1023.6 1024.0

 

Местоположение метеостанции Tuz (Ирак): широта 34.88 долгота 44.65 высота над уровнем моря 220 м.

В архиве по умолчанию представлена погода в Tuz за последнюю неделю. Архивные данные за месяц целиком и за предыдущие месяцы, начиная с января 2011 года, Вы можете получить, выбрав интересующий диапазон дат из раскрывающегося списка и нажав кнопку "Ввод!".


*Определитесь, кто Вы:
робот инопланетянин человек

Внимание! Время в таблицах - всемирное. Для получения местного времени необходимо прибавить поправку, которая в Tuz равна 3 ч.

Смотрите также архив погоды в соседних городах и на ближайших метеорологических станциях:

Погода в Kirkuk (Ирак) (69 км)
Погода в Chamchamal (Ирак) (73 км)
Погода в Tikrit (Ирак) (93 км)
Погода в Khanaqin (Ирак) (96 км)
Погода в Sulaimaniya (Ирак) (104 км)
Погода в Baiji (Ирак) (107 км)
Погода в Al-Khalis (Ирак) (117 км)
Погода в Halabcha (Ирак) (124 км)
Погода в Makhmoor (Ирак) (136 км)
Погода в Ayn Al-Tamar (Ирак) (148 км)

Пояснения к столбцам:

Ветер - указаны скорость ветра в м/с - средняя за 10 мин, порывы в срок и между сроками (в фигурных скобках) и направление, откуда дует ветер: С - северный, СВ - северо-восточный, В - восточный, ЮВ - юго-восточный, Ю - южный, ЮЗ - юго-западный, З - западный, СЗ - северо-западный.
Видимость - горизонтальная дальность видимости в метрах или километрах. При видимости от 1 до 10 км при отсутствии осадков обычно наблюдается дымка, при ухудшении видимости до 1 км и менее - туман. В сухую погоду видимость может ухудшаться дымом, пылью или мглою.
Явления - указаны атмосферные явления, наблюдавшиеся в срок или в последний час перед сроком; фигурными скобками обозначены явления, наблюдавшиеся между сроками (за 1-3 часа до срока); квадратными скобками обозначены град или гололедные отложения с указанием их диаметра в мм.
Облачность - указаны через наклонную черту общая и нижняя облачность в баллах и высота нижней границы облаков в метрах; квадратными скобками обозначены формы облаков: Ci - перистые, Cs - перисто-слоистые, Cc - перисто-кучевые, Ac - высококучевые, As - высокослоистые, Sc - слоисто-кучевые, Ns - слоисто-дождевые, Cu - кучевые, Cb - кучево-дождевые. Подробнее классификацию облаков см. в Атласе облаков (PDF).
T - Температура воздуха - температура, измеренная на высоте 2 м над землей.
Td - Температура точки росы - температура, при понижении до которой содержащийся в воздухе водяной пар достигнет насыщения.
f - Относительная влажность воздуха - влажноcть воздуха, измеренная на высоте 2 м над землей.
Te - Эффективная температура - температура, которую ощущает одетый по сезону человек в тени. Характеристика душности погоды. При расчете учитывается влияние влажности воздуха и скорости ветра на теплоощущения человека.
Tes - Эффективная температура на солнце - температура, которую ощущает человек, с поправкой на солнечный нагрев. Характеристика знойности погоды. Зависит от высоты солнца над горизонтом, облачности и скорости ветра. Ночью, в пасмурную погоду, а также при ветре 12 м/с и более поправка равна нулю.
P - Атмосферное давление - приведенное к уровню моря атмосферное давление.
Po - Атмосферное давление - измеренное на уровне метеостанции атмосферное давление.
Tmin - Минимальная температура - минимум температуры воздуха на высоте 2 м над землей.
Tmax - Максимальная температура - максимум температуры воздуха на высоте 2 м над землей.
R - Количество осадков - Количество выпавших осадков за период времени, мм. При наведении курсора мыши на число - период времени, за который выпало указанное количество осадков.
R24 - Количество осадков - Количество выпавших осадков за 24 часа, мм.
S - Снежный покров - Высота снежного покрова, см. При наведении курсора мыши на число - состояние снежного покрова и степень покрытия местности в баллах.